Wind_Speed
28 26 27 29 24 19 14 13 15 15 13 6 3 4 8 11 6 6 6 3 5 7 7 6 4 7 11 12 12 14 15 15 22 28 37 37 39 34 20 29 36 35 32
24 25 27 25 18 16 15 11 13 14 10 4 3 0 5 10 6 8 12 12 8 12 13 10 3 4 1 10 13 15 16 18 21 25 34 36 36 30 30 31 29 28 29
22 27 24 19 16 15 15 11 12 13 9 1 4 5 5 9 7 18 14 9 16 16 19 15 17 15 13 15 18 18 20 23 24 25 28 30 30 31 33 30 14 25 27
23 25 19 16 14 14 15 14 11 11 7 4 12 15 12 8 16 18 12 10 19 27 27 27 27 22 19 22 23 25 25 28 33 32 33 30 32 34 29 36 36 34 31
24 21 16 15 14 14 15 13 10 11 3 11 16 13 11 11 19 16 8 14 25 33 32 35 32 34 32 29 29 30 31 33 37 39 37 46 43 36 33 36 41 34 32
23 17 13 16 13 10 12 9 10 8 8 16 17 12 8 17 23 14 9 15 26 30 26 27 33 35 33 32 38 44 43 46 43 40 40 33 32 34 32 29 25 20 17
18 13 15 13 10 9 9 6 2 3 12 20 18 10 10 20 22 16 14 11 21 23 24 27 31 32 33 34 33 36 33 34 33 28 29 30 26 22 21 19 18 16 12
14 12 14 9 7 6 6 6 4 7 12 22 18 14 14 21 22 20 18 14 27 21 21 27 20 29 29 25 28 29 29 24 24 20 19 20 15 17 11 9 5 4 6
12 13 13 5 5 6 7 6 9 10 14 23 22 17 16 21 24 23 22 24 19 20 17 13 16 20 25 21 24 25 23 20 18 16 15 14 10 11 10 8 9 4 4
11 14 13 6 7 8 7 8 9 9 12 23 25 21 21 20 24 22 19 23 24 21 15 15 15 16 16 17 14 15 18 19 20 21 17 15 12 12 11 6 5 8 14
10 13 10 5 11 9 5 6 9 8 12 20 25 22 19 17 21 23 23 26 25 25 19 17 14 18 12 14 13 16 17 15 13 11 10 10 12 12 11 13 15 19 24
9 10 6 8 13 9 7 8 10 9 9 17 22 21 19 17 20 23 19 17 24 24 21 17 15 15 15 13 11 10 11 12 16 13 15 13 15 17 19 21 24 28 32
6 7 6 5 11 9 8 9 7 6 10 19 20 25 23 21 16 17 16 15 17 20 26 23 20 22 18 18 15 15 15 15 12 14 16 17 18 22 23 23 22 27 28
3 4 7 4 7 11 8 6 7 8 11 16 20 26 25 22 17 16 15 14 12 13 13 20 23 21 20 17 12 18 16 15 15 16 16 16 16 20 20 23 25 26 23
6 4 2 4 7 9 9 10 10 12 15 18 18 23 26 25 19 18 15 11 10 8 3 9 12 11 6 7 6 7 7 8 11 10 10 11 14 16 21 13 4 3 15
5 9 5 4 6 7 7 7 10 13 15 14 17 18 23 22 20 19 16 16 9 5 4 9 10 8 9 11 7 7 8 12 15 15 15 11 9 3 8 9 12 9 4
5 6 10 9 6 5 6 7 7 10 13 14 13 13 14 19 20 22 20 18 14 13 12 12 9 13 11 12 14 7 6 7 7 7 8 6 15 10 14 10 14 14 15
4 5 7 8 9 10 10 7 8 7 7 9 11 13 13 12 14 17 19 19 18 18 17 14 15 14 17 17 17 17 14 14 14 13 10 14 16 14 7 2 5 5 17
5 5 5 6 6 9 10 12 11 8 7 7 6 8 9 10 10 10 10 10 12 13 15 16 15 12 11 11 14 16 16 13 10 10 21 19 15 10 1 11 14 16 14
10 8 6 4 4 5 6 7 9 9 9 8 7 5 6 7 8 9 10 12 13 14 16 16 16 16 16 14 14 14 14 13 12 21 26 24 15 2 13 11 16 22 22
19 14 11 9 7 5 4 4 3 3 3 4 2 5 8 9 8 7 6 7 9 10 11 12 13 13 12 9 6 5 8 10 24 30 25 17 9 15 15 19 20 23 25
25 22 20 17 14 11 10 9 6 2 1 1 1 3 11 14 13 13 11 7 4 3 9 13 13 11 12 11 11 8 8 9 16 22 26 17 13 9 12 16 20 25 31
32 29 27 24 21 18 15 12 11 10 9 7 7 3 10 13 9 7 4 2 2 2 3 9 13 12 12 13 11 4 4 7 10 7 19 20 16 19 24 23 25 30 32
32 36 35 30 27 25 24 22 17 14 12 11 12 14 13 19 15 12 11 12 9 7 7 11 17 16 18 13 11 11 13 12 13 12 12 18 27 31 30 27 28 32 36
35 37 40 40 39 37 32 28 26 25 22 19 16 16 20 23 25 23 22 20 18 19 18 16 18 23 23 24 25 26 25 25 23 22 22 23 26 32 35 36 37 36 40
39 40 43 45 45 43 42 40 38 35 33 31 29 27 24 27 31 34 32 31 32 31 29 28 27 29 29 34 37 34 32 34 34 32 28 34 35 34 33 33 36 40 45
Wind_Direction
293 294 301 301 298 286 273 258 292 321 317 287 271 268 43 14 74 37 106 104 74 60 36 71 106 138 143 152 151 152 150 152 160 160 162 165 172 171 168 191 197 200 200
293 302 305 301 291 289 255 264 298 327 324 294 213 212 45 346 133 65 118 91 81 65 50 43 54 40 55 141 145 154 149 157 147 154 168 159 171 164 168 177 184 189 189
303 308 304 294 291 286 247 264 298 328 326 106 201 136 87 68 140 131 118 94 71 82 76 75 69 84 112 124 127 135 145 145 143 149 154 164 169 161 170 153 151 164 175
309 307 298 293 302 266 244 265 288 318 323 139 134 118 94 72 149 120 130 82 88 85 78 83 70 73 94 116 122 124 125 132 136 135 141 148 153 159 158 149 144 143 146
310 301 292 310 301 257 246 273 287 304 275 152 137 115 102 105 140 157 155 94 100 87 89 80 82 87 87 99 111 111 115 124 133 136 134 136 140 141 142 144 143 153 166
307 294 310 313 293 258 250 268 289 281 175 167 154 122 120 141 157 164 145 120 109 90 90 84 95 92 93 95 105 109 108 110 113 122 128 122 121 126 131 138 138 151 174
308 309 324 302 267 241 243 265 315 199 168 169 152 146 121 155 170 159 129 123 130 102 102 99 97 94 107 101 109 109 108 118 120 118 118 117 122 125 135 125 128 154 160
313 329 323 289 245 220 211 178 131 123 163 162 157 140 128 152 173 175 142 134 130 106 112 102 116 109 121 112 118 122 117 111 109 125 117 118 109 139 118 126 118 138 240
328 338 322 261 206 194 177 168 150 124 152 163 156 153 131 151 177 177 152 133 123 125 128 113 107 108 121 111 144 123 117 124 124 121 128 137 137 132 147 166 183 208 304
342 340 325 218 163 171 171 157 148 118 125 166 158 149 131 143 164 175 172 162 148 133 139 135 128 124 139 120 115 121 120 126 133 137 123 133 141 138 151 184 216 251 244
350 340 322 162 164 175 182 171 155 141 132 159 171 161 150 148 161 179 180 179 172 161 160 160 156 150 150 155 144 140 150 157 167 172 186 202 197 205 225 243 253 275 282
357 352 348 157 157 169 169 146 141 140 165 157 177 177 166 165 159 173 178 174 195 191 176 182 182 179 180 184 194 199 201 195 198 211 215 226 245 252 266 266 275 287 295
16 360 19 166 156 162 170 167 156 153 151 168 170 180 180 164 155 157 166 178 190 205 206 209 201 193 201 202 205 213 225 239 245 244 271 278 288 289 295 298 300 302 300
13 357 12 55 170 165 157 148 131 144 136 152 166 174 180 175 166 163 159 146 162 171 179 211 225 231 238 250 262 239 279 286 278 272 272 277 277 284 288 296 298 304 305
39 34 24 61 107 162 152 131 118 126 131 143 154 171 183 187 191 178 178 168 158 157 204 180 153 162 207 226 232 248 256 257 245 237 243 264 281 296 298 312 329 107 82
53 60 92 95 85 118 147 152 133 124 126 137 137 160 185 188 188 193 180 199 201 203 206 171 181 192 212 201 226 265 279 253 252 255 269 271 284 229 128 118 133 116 67
83 86 83 85 97 99 111 119 136 141 136 136 130 151 161 175 190 194 197 202 194 201 195 207 223 210 207 246 277 294 274 260 249 238 221 270 159 129 157 119 132 45 47
144 110 96 93 86 84 88 108 118 134 142 147 145 144 146 156 174 196 210 208 202 212 227 233 227 235 254 263 263 268 255 263 260 252 230 181 190 189 179 226 44 229 3
237 178 137 99 91 88 86 89 90 101 123 136 148 159 166 167 173 178 190 199 217 229 235 244 249 247 245 251 257 262 261 252 229 202 174 159 159 151 256 340 339 351 342
231 235 225 186 130 107 112 110 104 102 99 100 119 144 166 172 175 183 193 205 215 222 229 234 237 241 246 244 247 247 243 242 220 184 184 177 176 239 322 332 333 334 338
236 232 235 235 219 200 158 139 123 110 114 124 104 100 121 124 128 134 158 191 199 201 204 206 210 216 223 202 202 190 198 203 179 183 187 198 278 302 298 324 331 329 329
238 238 239 243 243 232 215 202 186 175 256 305 67 218 148 131 121 105 105 104 96 207 216 210 205 205 207 212 203 188 203 202 198 210 221 245 288 315 308 305 310 322 329
240 243 242 244 247 255 252 245 232 232 235 237 243 226 192 181 173 163 145 186 231 264 275 244 228 232 228 182 161 218 167 182 207 211 222 255 291 302 304 306 307 308 315
244 243 244 246 245 243 247 253 258 256 251 246 244 244 216 218 223 238 274 289 270 270 243 246 243 233 186 202 250 255 256 254 245 247 270 275 274 278 279 287 290 296 305
251 251 247 246 250 252 252 252 256 257 257 254 254 250 250 235 227 234 237 249 259 270 270 258 233 219 233 248 256 258 252 253 260 264 260 271 278 275 283 290 294 301 305
246 249 244 244 248 250 253 255 257 260 258 258 261 261 259 251 247 245 248 255 261 266 268 264 253 244 255 259 254 252 250 254 258 266 259 263 278 290 300 293 292 297 305
Height
10643 10640 10636 10632 10629 10625 10623 10622 10620 10614 10610 10606 10604 10602 10600 10599 10596 10593 10591 10589 10588 10584 10581 10581 10580 10578 10577 10578 10580 10582 10585 10588 10591 10597 10604 10613 10623 10632 10643 10648 10655 10663 10669
10638 10633 10630 10626 10623 10620 10619 10618 10616 10612 10608 10604 10602 10601 10601 10600 10597 10596 10595 10595 10592 10590 10587 10584 10583 10582 10581 10580 10582 10585 10587 10593 10596 10601 10609 10617 10625 10634 10642 10647 10654 10661 10668
10632 10627 10624 10621 10618 10615 10615 10615 10613 10610 10605 10602 10602 10602 10602 10600 10599 10599 10600 10599 10598 10595 10593 10591 10589 10586 10584 10584 10585 10589 10592 10596 10601 10606 10614 10623 10630 10637 10642 10651 10657 10663 10668
10627 10623 10620 10618 10614 10612 10612 10612 10611 10608 10603 10602 10602 10603 10603 10602 10601 10604 10603 10604 10604 10601 10600 10599 10596 10593 10589 10589 10591 10594 10596 10600 10607 10613 10618 10627 10634 10641 10647 10652 10659 10666 10674
10622 10619 10617 10613 10610 10609 10610 10609 10607 10605 10602 10603 10604 10604 10604 10604 10606 10606 10607 10610 10610 10608 10608 10607 10605 10602 10601 10601 10602 10604 10606 10611 10616 10621 10627 10634 10639 10645 10652 10657 10661 10671 10677
10619 10616 10612 10608 10606 10606 10607 10606 10605 10601 10601 10603 10605 10605 10606 10607 10609 10610 10612 10614 10616 10615 10616 10616 10616 10615 10615 10614 10617 10620 10624 10627 10631 10636 10641 10646 10649 10654 10659 10665 10668 10676 10681
10615 10612 10608 10605 10604 10603 10604 10604 10603 10599 10600 10603 10605 10607 10608 10610 10613 10614 10616 10618 10620 10621 10623 10624 10624 10626 10627 10629 10632 10634 10638 10641 10645 10648 10651 10654 10660 10664 10668 10673 10677 10682 10687
10612 10609 10606 10603 10603 10602 10603 10603 10601 10600 10600 10602 10605 10608 10610 10612 10614 10618 10621 10623 10625 10627 10628 10631 10630 10632 10635 10638 10640 10642 10646 10650 10654 10658 10660 10662 10666 10670 10674 10677 10681 10684 10687
10610 10607 10605 10602 10602 10603 10602 10602 10601 10601 10601 10603 10607 10610 10612 10614 10617 10621 10624 10627 10631 10632 10634 10636 10638 10640 10642 10644 10647 10647 10651 10655 10658 10661 10665 10668 10671 10673 10677 10680 10682 10683 10685
10607 10605 10604 10601 10601 10603 10603 10602 10602 10603 10603 10604 10607 10612 10614 10616 10619 10623 10627 10630 10633 10636 10638 10640 10642 10645 10647 10649 10652 10655 10657 10659 10663 10666 10669 10671 10674 10676 10679 10680 10681 10683 10684
10606 10605 10603 10600 10600 10602 10603 10602 10603 10603 10605 10606 10609 10612 10615 10617 10620 10624 10627 10631 10635 10637 10640 10643 10646 10649 10651 10654 10656 10658 10660 10663 10666 10669 10671 10673 10675 10676 10677 10678 10679 10680 10680
10606 10605 10604 10601 10601 10603 10603 10604 10604 10604 10605 10606 10609 10613 10617 10619 10621 10625 10628 10631 10635 10639 10642 10645 10647 10651 10654 10656 10659 10661 10663 10665 10667 10668 10670 10671 10673 10674 10675 10676 10677 10676 10675
10608 10607 10605 10603 10601 10602 10604 10605 10605 10604 10603 10605 10608 10612 10617 10621 10624 10626 10629 10632 10637 10639 10642 10645 10648 10651 10653 10656 10658 10660 10663 10665 10666 10667 10669 10670 10671 10671 10672 10671 10671 10670 10668
10609 10608 10607 10605 10604 10604 10605 10606 10606 10605 10604 10606 10608 10612 10617 10622 10625 10629 10632 10634 10638 10640 10642 10644 10647 10650 10652 10654 10655 10659 10660 10662 10664 10665 10666 10667 10668 10667 10667 10667 10666 10665 10663
10611 10609 10608 10607 10606 10606 10607 10607 10607 10608 10608 10609 10610 10614 10618 10623 10627 10631 10634 10636 10639 10642 10644 10646 10647 10649 10651 10654 10656 10656 10657 10658 10660 10662 10663 10664 10664 10663 10662 10661 10660 10659 10658
10612 10611 10610 10609 10609 10608 10608 10609 10609 10610 10611 10612 10612 10615 10618 10622 10626 10630 10634 10637 10639 10641 10643 10646 10648 10649 10651 10653 10655 10655 10655 10656 10657 10658 10660 10661 10661 10659 10658 10657 10657 10657 10655
10614 10613 10612 10612 10611 10610 10609 10610 10610 10611 10612 10613 10615 10617 10618 10620 10624 10628 10632 10635 10638 10640 10642 10644 10646 10647 10649 10651 10650 10651 10652 10653 10653 10654 10656 10657 10657 10657 10657 10657 10657 10656 10653
10616 10615 10614 10614 10613 10613 10613 10613 10612 10613 10614 10615 10616 10618 10620 10622 10625 10628 10631 10633 10636 10638 10641 10642 10644 10645 10646 10647 10647 10648 10649 10649 10649 10651 10652 10653 10654 10656 10656 10656 10655 10652 10648
10616 10616 10616 10616 10616 10615 10614 10614 10614 10615 10616 10617 10618 10619 10620 10622 10625 10627 10629 10631 10633 10635 10636 10638 10639 10641 10642 10643 10643 10644 10645 10645 10646 10647 10650 10651 10653 10653 10652 10651 10651 10650 10647
10614 10616 10617 10618 10617 10616 10617 10617 10617 10617 10617 10618 10619 10621 10622 10623 10624 10625 10627 10629 10630 10632 10633 10635 10637 10638 10639 10639 10639 10639 10640 10641 10642 10643 10646 10648 10649 10650 10650 10648 10645 10642 10639
10611 10613 10616 10618 10618 10618 10618 10618 10617 10618 10618 10620 10620 10622 10622 10623 10624 10626 10627 10627 10628 10629 10630 10632 10633 10635 10636 10637 10637 10637 10637 10638 10641 10644 10645 10645 10646 10646 10644 10642 10638 10636 10634
10606 10609 10613 10616 10618 10618 10618 10618 10618 10619 10619 10620 10622 10623 10623 10624 10625 10626 10627 10628 10629 10630 10630 10631 10632 10633 10634 10635 10635 10636 10637 10638 10640 10641 10642 10643 10643 10641 10639 10636 10633 10629 10626
10599 10603 10607 10611 10614 10615 10617 10618 10619 10619 10619 10620 10621 10623 10625 10625 10625 10625 10627 10628 10629 10629 10630 10631 10632 10632 10633 10634 10635 10636 10636 10637 10638 10638 10639 10639 10637 10635 10633 10631 10628 10625 10620
10591 10595 10600 10604 10606 10609 10611 10613 10615 10617 10618 10619 10620 10621 10623 10624 10625 10626 10626 10627 10629 10629 10629 10629 10630 10632 10633 10633 10633 10634 10634 10634 10634 10633 10633 10632 10630 10628 10625 10623 10620 10616 10612
10582 10586 10590 10595 10597 10600 10603 10605 10608 10610 10612 10614 10617 10618 10618 10619 10620 10621 10621 10622 10623 10624 10626 10627 10628 10629 10629 10629 10628 10628 10628 10627 10627 10627 10626 10624 10621 10618 10616 10614 10611 10608 10603
10574 10576 10580 10583 10585 10590 10593 10596 10598 10601 10602 10605 10606 10608 10610 10612 10612 10613 10614 10615 10615 10617 10618 10618 10620 10621 10622 10621 10621 10620 10620 10619 10618 10617 10617 10614 10612 10610 10608 10604 10600 10596 10592